GFSSGP_925_temp_066.txt.gz
Temp
18 19 19 19 19 16 18 22 24 24 25 25 26 25 23 23 24 23 19 20 21 20 20 20 20 20 20 19 19 19 19 19 18 18 18 18 18 18 19 19 18 18 18 17 17 17 17 18 18
18 19 18 17 18 16 19 22 24 24 23 24 25 24 23 22 22 20 20 19 21 20 20 20 20 20 19 19 19 19 19 19 18 18 17 17 18 18 18 18 18 17 17 17 17 18 19 18 19
17 18 17 16 16 18 19 23 24 24 24 24 25 23 23 22 21 21 20 19 20 19 20 20 20 20 19 19 19 19 19 19 18 18 17 17 17 17 17 18 17 17 17 17 18 19 19 19 19
17 16 15 16 18 19 22 24 24 24 22 25 25 23 22 20 20 20 19 19 19 19 20 20 20 20 19 19 19 19 19 19 18 18 17 17 17 17 17 17 16 17 17 18 18 19 19 19 19
16 14 17 15 17 21 22 24 24 23 23 23 25 22 21 21 21 20 20 20 20 19 20 20 20 19 19 19 20 19 19 19 19 18 18 17 17 16 16 16 16 17 17 18 18 19 19 19 19
15 16 16 16 18 21 23 24 22 23 24 25 25 21 19 19 19 20 20 21 20 19 19 19 19 19 19 19 19 19 19 19 19 19 19 19 18 17 16 16 16 17 17 18 18 19 19 19 20
16 15 16 17 18 20 23 23 21 21 23 22 24 24 19 18 20 21 21 21 20 20 19 19 19 19 19 19 19 19 19 19 19 19 19 19 19 19 19 19 19 19 19 19 19 19 19 19 20
15 15 15 16 18 20 22 23 21 22 22 22 22 20 18 20 21 21 21 21 20 20 20 19 19 19 19 19 20 19 19 19 19 19 19 19 19 19 19 19 19 19 19 19 19 19 19 20 20
16 15 15 16 18 21 20 21 21 21 21 20 20 20 21 21 20 20 20 20 19 19 20 19 19 19 19 19 19 19 19 19 19 18 19 19 19 19 19 19 19 19 19 19 19 20 20 20 20
15 15 16 18 18 20 20 21 21 20 19 19 19 19 20 20 20 19 19 18 19 19 19 19 19 19 19 19 19 19 19 19 19 19 19 19 19 19 19 19 19 19 19 19 19 19 19 19 19
15 16 17 18 19 19 19 20 21 19 20 19 19 19 19 18 19 21 18 18 18 21 19 20 19 19 19 19 19 20 19 19 19 19 19 19 18 19 19 19 19 19 19 19 19 19 19 19 19
15 16 16 18 18 17 19 20 18 20 20 20 19 19 19 19 18 18 19 19 19 20 21 20 20 20 19 20 20 20 20 20 19 19 19 19 19 19 19 19 19 19 19 19 19 19 19 19 19
15 16 16 17 17 16 18 18 18 18 19 19 19 19 18 18 18 19 19 19 20 19 20 21 20 21 20 20 20 20 20 20 20 20 20 19 19 19 19 19 19 19 19 19 19 19 19 19 19
14 16 16 16 16 15 17 17 19 18 19 18 19 18 18 17 18 18 19 19 19 20 19 20 21 21 21 20 20 20 20 20 20 20 20 20 20 19 19 19 19 19 19 19 19 19 19 19 19
14 14 15 16 15 15 15 17 17 18 19 19 19 18 18 18 19 19 19 19 19 19 20 20 20 21 22 21 21 21 20 20 20 20 20 20 20 20 19 19 19 19 19 19 19 19 19 19 19
14 14 14 13 15 15 15 17 17 17 17 18 18 19 19 19 19 20 20 20 21 22 21 20 20 21 21 21 21 21 21 21 21 21 20 20 20 20 19 19 19 19 19 20 19 19 19 19 19
13 12 13 12 13 14 15 16 17 17 18 18 18 18 18 18 19 20 21 20 21 21 21 21 21 21 21 21 21 21 21 21 21 21 20 20 20 20 19 19 19 19 19 19 19 19 19 20 19
13 12 12 11 14 14 14 14 17 17 17 17 17 17 17 18 18 20 21 21 20 21 21 21 21 21 21 21 21 21 21 21 21 21 21 20 20 20 19 19 19 19 20 20 19 19 19 19 19
14 14 13 14 14 14 14 15 15 17 17 16 15 16 17 17 19 20 21 21 21 20 21 21 21 21 21 21 20 20 20 21 20 21 21 20 21 20 20 19 19 19 20 20 19 19 19 19 19
16 15 14 14 14 15 14 15 16 16 16 16 16 15 16 18 18 19 21 21 20 21 21 21 21 21 21 21 20 20 20 20 20 20 20 21 21 20 20 20 19 19 20 19 19 18 18 18 18
15 15 14 14 15 15 14 14 15 16 16 17 16 16 16 16 18 17 18 20 21 20 21 21 22 21 21 20 20 19 20 20 20 20 20 20 20 20 19 19 19 19 19 19 18 18 17 17 17
14 16 16 16 15 15 15 14 14 16 16 16 15 15 16 16 16 17 17 19 20 21 21 21 21 21 21 21 20 20 20 20 20 20 20 19 18 19 19 19 19 18 18 18 17 16 16 15 15
15 15 14 15 14 14 14 14 14 14 15 16 16 14 15 15 16 16 16 18 21 21 21 20 20 22 21 21 21 21 20 21 21 20 18 17 17 16 17 17 18 17 17 17 17 16 15 15 14
14 12 12 13 13 13 15 13 14 14 15 15 15 15 15 16 15 16 17 17 18 19 20 19 18 19 20 21 20 20 20 20 17 17 16 16 18 17 16 16 17 17 16 16 15 15 14 14 13
14 13 12 13 13 14 14 13 14 16 17 16 16 15 15 15 16 16 14 14 16 18 19 18 17 18 17 17 18 19 19 18 18 17 15 16 16 16 16 16 16 15 15 14 13 13 13 13 12
14 14 12 13 12 14 14 14 16 16 14 13 13 13 13 13 12 13 14 14 15 16 18 18 17 16 16 16 16 15 16 17 16 15 15 15 14 15 15 15 14 13 14 12 12 12 12 12 12
15 13 15 12 11 11 13 16 17 14 14 13 13 13 13 13 12 12 12 14 15 15 15 15 16 15 15 15 15 15 15 15 16 15 15 16 15 15 15 14 14 14 13 13 11 11 11 11 11
14 15 13 11 12 14 13 15 14 15 14 15 14 13 13 13 12 12 12 14 14 15 15 15 15 15 15 14 14 14 14 14 15 16 17 16 15 15 14 13 12 12 11 11 10 10 10 10 10
13 13 13 12 11 12 13 14 14 13 13 14 14 14 14 13 12 12 12 14 15 15 14 14 14 14 14 14 14 14 14 13 13 13 13 13 13 12 11 12 11 10 9 9 9 9 9 9 9
13 14 13 10 12 10 9 13 14 14 13 13 12 12 14 13 12 11 11 12 12 14 14 14 13 13 13 13 13 13 13 13 13 12 11 11 11 11 10 10 9 9 8 8 8 8 8 9 8

GFSSGP_925_temp_072.txt.gz
Temp
16 17 18 17 16 17 16 17 21 22 22 22 22 23 23 20 22 22 19 19 21 20 20 20 20 20 19 19 19 19 19 19 18 18 19 19 19 19 19 18 18 18 18 18 18 17 17 18 18
16 17 17 14 15 16 17 18 20 21 20 22 23 21 22 21 20 19 19 19 20 20 20 20 19 19 19 18 19 19 19 18 18 18 19 19 19 18 18 18 17 17 17 17 17 17 18 18 18
15 16 14 16 16 16 18 19 20 21 21 19 21 21 20 19 20 20 20 19 19 19 19 19 20 19 19 18 19 18 18 17 17 18 18 18 19 19 18 17 17 17 17 17 18 18 18 18 18
15 14 14 15 16 17 17 19 21 19 18 18 18 20 20 18 18 19 20 19 19 20 20 19 19 19 19 19 19 18 17 17 17 17 18 18 18 18 17 17 16 16 17 18 18 18 18 18 18
15 13 15 15 16 16 17 20 21 20 18 19 19 20 20 19 19 19 20 19 20 20 20 19 19 19 19 19 19 18 17 17 17 17 17 18 18 17 17 16 16 17 18 18 18 18 18 19 19
14 14 15 15 15 17 18 19 21 20 19 20 18 18 20 18 17 19 19 19 20 20 19 19 19 19 19 19 19 19 18 17 17 17 17 17 17 17 16 16 16 18 19 19 19 18 19 19 19
13 14 15 15 15 16 18 19 19 18 18 20 19 19 20 18 17 18 19 20 20 20 19 19 19 19 19 19 19 19 19 18 17 17 17 17 17 16 16 16 17 18 19 19 19 19 19 19 18
12 14 15 16 15 15 18 19 20 19 19 20 21 18 19 17 17 16 18 20 20 19 19 19 19 19 19 19 19 19 18 19 18 17 17 17 16 16 16 17 18 18 19 18 18 19 19 19 19
14 13 15 16 16 16 18 19 20 20 20 20 21 20 20 16 18 16 17 18 18 18 19 19 19 19 19 19 19 19 18 18 18 18 18 17 17 17 17 18 18 19 18 18 18 18 19 19 19
12 14 15 17 16 16 19 18 19 18 20 19 20 18 17 17 17 15 15 17 18 18 18 18 19 18 19 19 19 19 18 18 18 18 18 18 18 18 18 18 18 18 18 18 18 18 18 19 19
12 13 16 16 17 17 19 18 19 18 19 19 20 18 18 17 16 16 15 15 18 18 18 18 18 18 19 19 19 19 18 18 18 18 18 18 18 18 18 18 18 18 18 18 18 18 19 18 18
12 14 15 17 17 17 17 18 18 19 21 20 21 19 18 17 17 17 16 16 15 17 18 18 18 18 19 19 19 18 18 18 18 18 18 18 18 18 18 18 18 18 18 18 18 18 18 18 18
11 13 15 16 17 16 15 16 16 18 19 19 20 19 19 19 18 18 16 18 16 16 19 18 18 18 18 19 19 19 18 18 18 18 18 18 18 18 18 18 18 18 18 18 18 18 18 18 18
12 13 15 16 17 16 16 15 14 16 17 19 20 19 19 19 18 18 18 16 17 18 18 19 20 20 18 17 18 19 19 19 18 18 18 18 18 18 18 18 18 18 18 18 18 18 18 18 18
13 13 13 15 16 16 14 16 15 15 17 17 20 19 19 18 18 17 18 18 18 19 18 19 20 21 20 19 18 18 18 18 18 18 19 19 19 19 19 18 18 18 18 18 18 18 18 18 18
11 13 13 15 15 14 15 16 15 15 16 17 16 17 19 19 18 17 18 19 20 19 18 18 20 22 22 21 20 18 17 17 18 18 19 19 19 19 19 18 19 18 18 18 18 18 18 18 18
12 11 11 12 14 13 14 15 15 14 15 16 16 16 16 16 18 19 19 20 19 20 20 20 21 20 19 18 19 18 18 19 19 17 17 19 19 19 19 19 19 19 19 19 19 18 18 18 19
12 10 11 12 14 13 12 13 15 14 15 15 16 16 16 16 17 18 18 18 19 18 20 20 19 20 19 19 17 17 19 18 18 19 18 19 19 19 19 19 18 18 18 18 18 18 18 19 19
13 13 11 12 13 14 13 13 14 14 14 15 15 15 16 17 17 17 17 17 21 21 19 20 19 19 19 19 19 19 18 18 19 19 19 19 20 20 19 19 19 18 18 19 19 18 19 19 19
13 12 11 13 14 14 14 12 12 14 13 14 14 15 15 16 17 17 17 18 18 19 18 20 19 19 19 17 19 18 19 19 19 19 19 19 20 20 19 19 19 19 19 18 18 18 18 18 18
13 12 12 11 12 13 13 13 12 14 14 14 14 15 15 16 17 17 17 18 18 18 21 21 21 20 18 19 18 18 18 17 17 18 18 19 20 20 19 19 18 18 18 18 18 18 18 18 17
13 13 13 12 13 12 14 14 13 13 14 15 14 14 15 15 16 16 16 18 18 20 20 20 21 21 20 20 17 16 16 17 16 16 16 18 18 20 19 19 17 17 17 18 18 17 18 17 17
12 14 14 14 13 13 13 13 14 13 13 16 15 14 14 15 15 15 16 17 19 19 20 20 19 21 21 20 20 19 18 18 18 18 17 16 16 16 17 19 18 16 16 16 17 17 16 15 15
13 12 13 12 13 13 13 14 14 14 15 15 15 15 15 15 14 14 16 17 17 18 18 18 19 18 18 19 19 18 19 19 20 18 18 17 16 16 15 15 16 16 17 16 16 16 15 16 15
13 13 12 13 13 13 13 14 13 13 11 13 12 11 11 11 11 11 12 13 14 14 15 15 17 18 17 17 16 15 16 16 16 17 18 17 16 15 14 14 15 16 16 16 16 16 16 15 14
12 13 12 13 13 12 12 14 13 12 11 11 11 10 10 10 9 9 9 11 12 13 14 15 15 15 16 16 16 15 16 15 15 14 15 15 17 16 15 15 14 14 15 14 14 14 13 13 13
13 12 13 11 12 12 12 14 15 12 12 11 11 11 9 9 8 8 8 9 10 11 12 13 14 15 15 15 16 15 15 14 14 13 13 14 14 15 15 15 14 13 12 13 13 12 12 12 11
14 14 13 10 12 13 12 14 13 13 12 11 10 9 9 8 8 8 8 8 10 11 12 13 13 13 13 14 14 14 15 14 14 13 13 13 13 13 14 12 12 12 12 12 12 11 11 10 10
13 13 12 11 10 13 13 14 12 13 12 11 9 8 8 7 7 6 7 8 9 11 11 12 12 12 12 12 12 13 13 13 13 13 12 12 12 11 11 12 12 12 11 11 10 10 10 9 9
12 13 12 10 12 8 11 13 9 11 11 9 8 8 7 7 6 6 6 7 8 9 10 11 11 12 12 12 12 12 12 12 12 12 12 12 12 12 12 11 11 11 10 9 9 9 9 8 8

GFSSGP_925_temp_078.txt.gz
Temp
16 17 17 19 22 22 23 25 26 27 27 29 27 27 28 27 28 28 22 21 23 23 22 20 20 19 19 19 19 20 19 19 19 19 20 19 19 19 18 18 18 18 19 18 19 18 18 17 17
15 16 18 20 20 23 23 26 24 26 28 27 26 25 26 26 25 24 21 20 22 23 22 21 20 19 19 19 19 19 19 19 19 20 20 20 19 19 18 18 18 18 18 18 18 17 17 17 17
15 16 19 19 21 23 24 26 26 27 26 26 25 23 23 24 24 23 21 21 21 22 22 21 20 19 19 19 19 19 20 19 19 20 20 19 19 19 18 18 18 18 18 17 17 17 18 18 17
16 16 18 18 20 23 24 26 25 26 24 25 26 23 22 20 21 18 21 21 21 22 22 20 19 19 19 19 19 19 19 19 19 19 19 19 19 18 18 18 18 18 17 17 17 18 18 18 18
16 18 18 19 20 22 24 25 26 25 26 25 24 24 21 20 19 19 19 21 22 22 22 20 19 19 19 19 19 19 19 19 19 19 19 19 19 18 17 17 17 17 17 17 18 18 18 18 18
17 19 18 19 21 22 23 24 24 24 25 26 25 25 23 19 19 18 18 21 22 22 21 20 19 19 19 19 19 19 18 18 18 18 19 18 19 17 17 16 16 17 17 17 18 18 18 19 18
16 17 18 20 21 22 23 24 23 23 24 25 26 24 26 20 19 19 19 18 21 21 21 20 19 19 19 19 19 19 19 18 18 18 18 19 18 17 16 16 16 16 16 17 18 18 18 19 19
16 17 17 19 20 21 23 23 23 22 24 26 26 24 25 23 17 16 19 17 19 20 20 20 19 20 19 18 18 18 19 18 18 18 18 18 17 16 16 16 16 16 17 18 18 18 18 18 19
16 15 16 18 20 21 23 22 23 23 23 25 25 25 26 21 16 17 16 16 15 16 19 19 19 20 21 18 18 18 18 18 17 18 18 17 17 17 16 18 16 17 18 18 18 18 18 19 19
14 15 17 20 21 21 22 21 22 21 22 23 24 25 21 17 18 16 15 15 15 15 18 18 19 20 20 20 18 18 18 18 18 18 17 19 19 19 19 17 17 17 18 18 18 18 18 18 19
15 14 18 19 19 20 21 21 22 21 21 23 24 24 21 19 18 16 15 15 14 14 14 18 18 19 20 20 18 18 18 19 19 19 18 19 18 17 18 18 17 17 17 18 17 17 18 19 19
12 15 16 17 18 18 19 21 21 21 22 24 24 22 21 19 18 18 17 15 15 14 15 17 18 19 19 19 19 18 18 19 18 18 18 18 18 17 18 18 18 18 18 18 18 19 19 18 19
13 14 16 17 17 17 18 19 20 21 22 23 23 22 21 19 20 17 16 16 17 14 15 15 17 18 18 19 19 18 18 18 19 18 18 18 18 18 18 18 18 18 18 19 19 19 19 19 19
14 14 15 15 16 16 17 18 19 20 22 21 22 22 22 20 19 18 16 15 17 17 15 15 16 17 17 18 18 19 18 18 17 18 18 18 18 17 17 18 18 18 18 18 19 19 19 19 19
11 11 13 14 15 16 18 17 18 20 21 21 22 21 22 20 19 19 18 17 16 16 16 16 14 15 17 17 17 17 17 17 18 17 17 17 17 18 18 19 18 18 18 18 18 18 18 19 19
11 10 11 15 15 16 16 17 19 21 20 20 21 21 19 19 20 18 17 17 16 16 15 16 16 16 17 18 17 17 17 17 17 17 17 17 17 17 18 19 19 18 18 18 18 18 18 19 19
10 11 11 14 16 16 16 15 20 20 19 20 21 20 17 17 19 18 18 17 16 15 16 16 17 16 17 17 17 18 18 17 17 17 18 17 17 17 17 18 18 18 18 18 18 18 19 19 19
11 12 13 14 16 16 17 17 17 18 19 20 20 19 16 15 18 17 17 16 16 16 16 18 16 15 16 17 19 17 17 18 17 17 17 17 17 17 17 18 18 18 18 18 18 19 19 19 20
9 10 12 13 13 16 13 15 13 14 17 18 18 18 18 17 14 14 16 17 16 17 16 16 16 16 16 16 18 18 18 17 17 17 17 17 17 17 17 16 16 18 18 18 18 19 19 19 18
10 11 12 12 14 16 12 13 13 13 15 17 17 17 15 14 14 13 14 14 15 16 16 16 16 17 16 17 18 18 18 16 16 17 16 16 16 17 16 17 16 16 18 19 19 18 18 18 18
10 13 13 12 13 14 14 13 12 13 15 15 15 16 14 15 14 14 14 14 16 15 15 16 16 16 17 17 17 17 16 16 17 16 15 16 16 16 15 16 16 15 15 17 18 18 18 18 18
12 14 11 11 11 14 13 14 11 11 15 14 16 16 14 13 15 15 15 14 15 15 16 16 16 17 18 17 18 17 16 16 16 16 16 15 16 15 15 15 15 15 15 15 16 17 17 17 17
14 13 12 12 15 14 12 14 12 13 14 14 15 14 14 14 14 15 16 15 14 15 15 16 16 16 17 16 16 17 17 16 16 15 15 14 14 15 16 17 16 15 15 15 15 15 16 16 16
13 15 14 15 16 15 13 14 12 11 14 15 14 12 11 12 14 14 14 14 13 13 14 15 15 15 15 17 18 18 18 16 15 14 14 15 15 14 15 15 15 15 15 15 15 14 13 14 15
13 15 14 15 15 15 12 14 11 14 14 14 12 11 10 11 13 14 14 14 13 12 13 14 14 13 13 14 15 15 16 17 16 15 15 15 14 14 15 14 15 15 16 14 14 14 14 13 13
14 15 16 16 16 14 15 13 11 14 13 10 10 10 11 10 12 12 12 12 12 12 12 13 13 12 12 13 14 14 13 14 15 15 15 15 14 14 14 14 14 15 14 14 14 14 14 13 12
15 15 16 15 14 16 14 14 15 14 13 11 10 10 9 10 12 12 11 11 11 11 11 11 12 12 12 12 12 13 13 13 13 14 13 14 14 13 13 13 14 14 13 13 13 12 12 11 12
16 16 16 16 16 15 14 15 15 15 13 13 12 11 10 11 11 10 11 10 10 10 11 11 11 11 11 11 11 11 12 13 13 13 13 13 12 13 13 13 13 13 13 12 12 12 11 12 11
16 16 15 16 15 18 16 15 16 15 14 13 12 12 11 10 10 11 11 10 10 10 10 10 10 10 10 10 10 11 11 12 12 12 12 12 12 12 12 13 12 12 11 12 11 11 11 11 11
14 15 16 18 15 14 18 15 14 15 14 13 12 11 10 10 10 10 10 10 10 9 9 9 9 9 8 9 9 10 10 10 11 11 11 11 10 11 12 12 12 11 11 11 11 11 11 10 10

GFSSGP_925_temp_081.txt.gz
Temp
16 19 20 21 22 23 24 25 28 29 30 32 31 30 30 32 29 27 24 25 25 25 22 20 20 20 19 20 20 20 19 19 20 20 20 19 19 19 19 18 18 19 19 19 19 18 18 18 18
17 19 20 22 21 23 24 27 27 29 30 31 29 28 28 29 27 25 23 22 24 25 22 21 20 20 20 20 19 19 19 19 20 20 20 20 19 19 18 18 19 19 19 19 18 18 17 18 18
16 18 21 21 22 22 25 28 28 29 29 28 28 24 27 27 24 23 23 23 22 24 22 21 20 20 19 19 19 19 19 19 20 19 20 20 19 19 18 18 18 19 19 18 17 18 17 18 18
18 19 20 21 22 24 25 27 29 29 29 29 26 26 24 23 23 21 20 23 22 22 22 21 20 20 19 19 19 19 19 19 20 19 20 20 19 18 18 18 18 18 17 18 18 18 18 18 18
18 21 20 20 21 24 26 27 28 28 28 27 27 26 26 23 20 19 21 21 22 21 21 21 20 19 20 19 19 19 19 19 19 20 20 19 19 18 18 18 18 17 17 17 18 18 18 18 18
18 20 20 20 22 24 25 26 27 27 28 28 27 26 27 23 21 18 20 19 21 22 21 21 20 20 19 19 19 19 20 19 19 19 19 19 19 18 17 18 18 17 17 17 18 18 18 18 18
17 19 19 21 22 23 24 26 26 26 27 27 28 27 27 23 21 18 20 18 18 18 21 21 20 19 19 19 19 19 20 19 19 19 19 18 18 18 17 17 17 17 17 17 18 18 19 18 19
18 18 19 20 21 22 25 26 26 26 25 28 28 25 26 25 19 17 20 17 17 16 18 19 19 20 19 18 18 19 19 19 18 18 18 18 18 17 17 16 16 17 17 18 18 18 18 18 19
18 15 17 19 20 22 24 24 26 27 25 26 26 27 27 24 18 16 16 17 16 16 17 17 19 20 21 19 18 18 18 18 18 17 18 18 17 17 17 17 16 16 17 17 18 18 18 19 19
16 16 17 20 22 22 23 24 25 25 24 24 25 27 26 21 18 18 17 16 16 14 16 16 15 20 21 19 18 18 18 18 19 18 18 18 18 19 19 17 16 16 17 17 18 18 18 19 19
16 15 18 20 21 22 22 23 24 23 23 24 24 25 25 23 21 19 17 16 15 15 15 15 16 16 21 19 18 20 19 20 20 19 19 20 20 19 18 17 16 16 17 17 18 18 18 19 21
14 16 17 18 19 20 20 21 22 23 24 25 25 25 23 23 22 19 16 15 15 15 16 16 16 15 20 20 19 19 20 21 20 20 20 20 20 19 20 19 19 19 18 19 19 19 20 20 20
16 16 17 18 18 18 19 19 20 22 24 24 24 22 24 21 21 20 18 16 15 15 15 16 17 15 18 21 19 18 19 21 20 20 20 20 19 18 19 19 19 19 19 20 20 20 21 20 20
16 16 16 17 17 17 18 18 19 21 23 23 23 23 23 23 21 20 19 18 16 16 14 16 16 14 16 21 19 18 18 19 19 19 19 20 19 19 19 20 19 19 19 20 20 20 21 21 21
14 13 13 15 15 15 17 17 18 21 22 22 22 23 23 22 21 21 20 20 16 15 16 18 14 15 15 20 20 19 18 18 19 19 19 19 19 19 19 19 19 19 20 20 20 21 21 21 21
13 13 11 15 16 16 16 15 19 21 21 21 22 23 22 22 22 21 20 19 17 15 15 15 15 16 15 18 18 19 19 19 18 18 18 18 18 19 19 19 20 20 20 19 20 20 20 20 20
12 11 13 14 16 16 15 16 19 22 21 21 22 22 22 23 21 20 20 19 17 16 15 15 15 17 16 17 18 18 18 18 19 18 18 18 18 18 19 19 20 20 19 19 19 20 20 20 20
12 11 12 14 16 16 16 17 19 18 20 21 21 22 22 21 18 17 17 18 17 16 15 14 15 16 17 17 18 18 18 18 18 18 18 18 18 18 18 18 19 19 19 19 19 19 20 20 21
11 10 11 12 16 16 16 17 19 16 16 18 21 22 22 20 15 15 15 16 16 16 15 15 15 16 16 16 17 18 18 18 18 18 18 18 18 18 18 18 18 18 19 19 19 19 20 20 20
11 10 11 13 15 15 17 17 19 16 15 16 18 20 20 15 14 14 14 15 15 15 15 15 15 17 17 17 18 17 18 18 18 17 17 17 17 17 17 17 16 16 18 18 18 19 20 20 20
11 11 12 11 14 15 16 13 15 17 16 16 17 17 17 16 14 14 14 14 14 15 15 15 15 15 16 15 16 16 16 17 17 16 16 16 16 16 16 16 16 16 16 17 17 16 19 19 18
11 13 11 12 15 15 16 15 13 14 14 15 15 15 14 14 14 14 14 13 14 14 14 14 15 15 16 16 15 15 16 16 16 16 16 16 16 15 15 15 15 16 15 15 16 16 15 17 18
12 14 14 12 12 14 14 16 12 11 14 14 14 14 13 13 12 12 12 12 12 13 13 14 14 14 15 16 16 15 15 15 15 15 15 15 16 15 16 16 15 15 16 15 15 15 15 15 16
13 13 13 13 13 14 13 15 12 11 10 11 12 11 13 13 11 11 12 13 13 13 14 14 14 16 16 16 16 16 16 15 15 14 14 15 16 15 15 17 17 14 16 16 16 16 14 15 14
13 14 14 15 15 14 12 15 11 10 12 10 11 11 11 12 12 11 12 13 13 13 14 14 14 14 14 14 15 15 17 16 15 16 15 15 15 15 15 15 14 14 15 17 17 14 14 14 14
13 15 14 15 16 14 15 13 11 10 11 9 10 10 10 10 10 10 12 12 12 12 13 13 13 13 13 13 13 13 14 15 15 15 14 14 15 14 14 15 14 15 16 16 14 14 13 13 13
16 16 17 18 19 17 14 12 13 12 10 10 10 10 10 9 9 11 11 13 13 13 13 13 13 13 12 12 12 13 13 13 13 13 14 15 14 15 14 14 14 14 14 14 14 13 13 13 13
15 17 17 18 16 16 16 16 15 14 11 11 10 9 9 10 11 11 12 12 12 12 12 12 12 12 12 12 12 12 12 13 13 13 13 13 13 13 13 13 13 13 13 13 12 12 12 12 11
17 17 18 18 17 19 17 16 17 16 15 14 12 11 10 10 11 12 12 12 12 12 11 11 11 11 11 11 11 12 12 11 12 12 12 12 12 12 12 12 13 13 12 12 12 12 12 11 11
16 17 18 19 17 18 19 16 17 16 16 14 13 12 11 11 11 12 12 12 11 11 11 11 10 10 10 10 11 11 11 11 11 11 11 11 11 11 12 12 12 12 12 11 11 11 11 11 10

GFSSGP_925_temp_084.txt.gz
Temp
16 18 20 21 19 20 20 22 25 25 27 29 30 31 28 28 25 23 24 24 25 23 21 21 20 20 20 20 20 20 20 20 20 20 19 19 19 19 19 18 19 19 19 19 19 19 19 18 17
16 18 20 19 18 19 21 23 24 25 27 28 29 28 28 25 25 24 23 24 24 23 21 20 20 20 19 20 20 20 20 20 20 20 20 20 19 19 19 18 19 19 20 19 18 18 18 17 18
16 18 18 18 18 18 21 24 25 27 28 28 25 25 24 23 23 23 22 23 23 22 22 21 20 20 20 20 20 19 19 20 20 19 20 20 19 19 18 19 19 19 19 18 18 18 18 18 18
18 19 18 17 19 21 21 23 25 26 27 28 26 25 24 23 23 21 21 23 22 22 22 22 21 20 20 20 19 19 19 20 20 19 19 19 19 19 18 19 19 19 18 18 18 18 18 18 18
18 18 17 17 18 21 23 24 25 25 26 27 27 24 22 22 21 20 21 22 21 21 22 21 21 20 20 19 19 20 19 20 20 19 19 19 19 19 18 18 18 18 17 18 18 18 18 18 18
16 17 16 17 18 21 22 23 24 25 26 27 26 25 21 22 21 19 20 21 20 21 21 21 20 20 19 19 19 20 19 20 20 20 19 19 19 18 18 18 18 17 17 18 18 18 17 18 18
15 16 16 17 19 21 22 24 23 24 24 25 27 24 24 20 21 22 18 20 19 18 19 20 20 19 19 19 19 19 19 19 20 19 19 19 19 18 18 18 17 17 17 17 18 18 18 18 18
16 16 16 17 18 19 22 23 24 24 24 26 26 24 23 22 20 17 17 18 20 20 18 17 18 19 19 19 19 19 19 19 19 19 18 19 19 17 17 17 17 17 17 17 18 18 18 19 19
17 14 14 16 18 19 22 22 23 24 24 25 25 25 25 22 19 17 16 16 19 19 17 14 14 16 15 19 18 19 19 18 19 18 18 18 18 17 17 16 17 17 17 17 18 18 19 19 19
14 14 15 17 18 19 21 21 22 22 23 23 24 25 25 19 18 17 16 16 15 16 20 16 15 17 14 15 19 18 18 18 18 17 18 17 18 17 17 17 16 16 17 18 18 19 19 19 19
15 13 16 17 18 19 19 20 21 21 21 23 23 23 23 21 18 18 17 17 16 17 16 16 16 15 14 14 15 18 17 17 18 17 18 18 18 17 17 17 16 17 17 18 18 18 19 19 19
13 15 16 16 17 18 17 19 19 20 20 22 23 24 22 19 19 18 17 16 15 17 17 16 18 15 16 14 14 17 18 18 18 18 18 19 18 18 17 17 17 18 18 18 19 19 19 20 20
15 15 17 17 17 17 17 17 17 18 20 22 23 23 21 21 18 19 17 16 15 15 17 17 16 16 16 15 16 18 19 19 19 19 19 20 19 19 18 18 18 18 19 18 19 19 20 20 20
14 14 14 15 15 16 16 16 17 18 19 20 22 21 22 20 18 16 18 17 16 16 16 16 14 14 17 17 16 18 20 20 20 19 20 20 19 19 19 19 19 19 19 19 20 20 20 20 20
13 12 13 14 14 14 15 15 15 18 19 19 21 22 21 19 21 19 19 17 16 16 15 15 14 14 16 19 16 17 19 20 20 20 19 19 19 19 19 19 19 19 19 19 20 20 20 20 21
11 11 10 13 14 14 14 12 16 17 18 18 19 21 20 20 21 20 20 20 18 16 15 14 14 15 17 16 16 17 19 19 19 19 19 19 19 19 19 19 19 19 19 19 20 20 20 20 20
10 9 10 12 15 15 14 13 15 17 18 18 19 19 20 20 19 21 20 19 17 16 15 14 15 15 17 19 17 17 19 19 19 19 19 19 18 18 19 19 19 19 19 19 19 20 20 20 20
10 10 11 11 14 14 14 14 16 17 18 17 19 20 19 19 19 17 18 17 17 16 15 14 15 15 16 16 17 18 19 19 19 18 18 18 18 18 18 19 19 19 20 19 19 19 19 19 20
11 11 11 12 13 12 13 14 15 16 15 14 15 17 18 17 15 15 15 15 15 16 15 14 15 17 16 15 17 18 19 18 18 18 18 18 18 18 18 18 18 19 19 19 19 19 19 19 20
10 11 11 12 13 12 12 14 16 16 14 15 15 15 17 15 15 15 15 15 15 14 15 14 14 15 17 16 16 17 18 19 19 18 18 18 18 18 18 18 18 18 18 18 18 18 18 19 19
10 12 11 10 11 13 14 14 15 16 16 16 17 16 14 15 14 13 14 14 14 13 14 14 14 15 15 15 15 16 16 16 17 17 17 17 17 17 17 17 17 17 17 17 18 18 17 16 18
10 12 12 10 11 11 12 10 14 13 14 15 15 15 14 14 14 13 13 13 13 13 13 14 14 14 15 15 14 15 16 16 16 16 16 16 16 16 17 17 17 16 16 16 17 17 16 15 15
11 13 10 12 12 13 13 13 12 12 13 11 13 13 13 12 12 11 11 11 11 12 13 14 13 14 14 14 14 14 15 15 15 15 14 15 15 15 16 16 16 16 17 16 17 16 15 15 15
13 13 12 11 12 14 14 14 12 11 10 10 11 11 11 11 11 11 10 10 10 11 11 12 13 14 14 14 14 14 15 15 15 15 14 14 14 15 15 14 15 16 15 16 15 14 14 15 15
12 12 13 13 13 13 13 14 11 10 10 10 11 10 10 10 11 10 10 10 11 11 12 13 13 13 13 13 14 14 15 15 15 15 14 14 15 14 15 15 14 17 15 14 14 14 14 14 14
13 12 13 14 14 13 13 12 11 9 10 10 9 9 9 9 9 10 10 10 11 12 13 13 13 13 12 13 12 13 13 14 16 16 14 16 14 15 15 15 16 17 14 15 15 14 14 13 14
15 13 14 14 16 14 12 11 10 9 10 9 9 9 8 8 9 9 10 11 12 12 12 12 12 12 12 12 12 12 13 13 13 13 14 15 15 15 15 16 16 15 15 14 14 13 13 13 14
15 17 15 14 15 14 14 13 13 10 10 10 9 8 8 9 8 10 10 10 11 11 11 11 11 11 11 11 12 12 12 12 12 13 13 13 13 13 13 13 13 13 14 13 13 13 13 13 12
15 15 16 16 15 15 14 12 15 12 11 10 9 9 10 9 10 11 11 11 11 11 11 10 10 10 10 10 11 11 11 11 12 12 12 12 12 12 12 12 12 13 13 13 13 13 13 12 12
15 16 17 13 15 14 13 12 14 13 13 12 11 10 11 11 10 10 11 11 10 10 10 10 10 9 9 9 10 10 10 11 11 11 11 11 11 11 11 12 12 12 12 12 12 12 12 12 11

GFSSGP_925_temp_087.txt.gz
Temp
16 18 18 18 16 16 16 18 20 21 23 25 25 25 25 23 25 23 23 23 23 22 21 21 21 21 21 20 21 21 20 20 20 20 19 19 19 19 18 18 18 19 19 20 19 18 17 17 18
16 18 18 15 15 15 16 18 19 21 23 24 24 23 25 22 22 21 22 22 22 22 21 21 21 20 20 20 20 20 21 20 20 20 20 20 19 19 18 18 19 19 19 19 19 19 18 18 19
16 17 15 15 14 15 16 19 20 22 22 23 24 24 23 21 21 21 21 22 22 21 21 21 21 20 20 20 20 20 20 20 20 20 20 20 19 19 19 19 19 19 19 18 18 19 18 19 19
16 16 14 15 14 17 18 19 21 22 23 24 24 22 21 22 21 21 21 22 22 21 20 21 22 20 20 20 20 19 19 20 20 19 19 19 19 20 19 19 19 19 18 18 18 18 18 19 19
16 14 13 13 14 16 18 19 20 21 21 23 24 22 20 20 20 21 22 22 21 20 21 21 21 21 20 19 20 19 19 19 19 19 19 19 19 19 19 19 19 19 18 18 18 18 18 18 19
13 13 13 13 14 17 17 19 20 20 21 22 23 21 20 20 20 19 21 22 21 21 20 20 20 20 20 19 19 19 19 19 20 19 19 19 19 20 19 19 18 18 18 19 18 18 18 18 19
13 13 13 14 15 16 18 19 19 20 20 22 23 23 20 18 20 19 19 19 19 21 21 18 18 18 19 19 19 19 19 20 20 19 19 19 19 19 18 18 18 18 18 18 18 18 17 18 19
13 13 14 14 14 15 18 19 20 20 21 22 23 22 22 20 18 18 18 17 17 18 19 18 17 16 17 17 17 18 19 19 19 19 19 18 19 18 18 18 18 17 17 18 18 18 18 19 19
15 12 12 13 14 16 18 18 20 20 20 21 22 23 22 19 18 17 16 16 15 16 17 18 17 17 17 16 17 16 18 19 19 19 19 18 19 18 18 18 18 17 17 18 18 18 19 19 19
12 10 13 15 15 15 17 17 16 17 18 19 20 22 18 18 18 17 17 16 16 17 18 17 19 19 18 15 15 17 16 19 19 18 18 18 18 17 17 17 17 17 17 18 18 19 19 19 19
13 12 14 14 15 16 16 16 17 16 17 18 18 19 18 16 17 16 17 18 17 17 16 18 18 18 20 14 14 15 17 16 18 18 17 17 17 17 16 17 17 16 17 18 18 18 19 19 19
12 14 14 14 15 15 15 16 16 16 16 17 18 19 19 16 16 17 17 17 17 17 17 17 18 18 17 15 15 16 17 16 17 18 16 17 18 17 16 16 16 16 17 18 18 19 19 19 19
12 13 14 14 14 14 15 15 15 16 16 17 18 19 19 18 17 18 18 18 17 16 17 17 16 15 15 17 15 16 16 17 17 18 17 17 17 17 17 17 17 17 18 18 19 19 19 20 20
12 12 12 13 13 14 13 14 14 15 16 16 18 18 18 18 17 17 17 17 17 16 16 16 16 14 14 13 15 16 16 15 17 17 18 18 18 17 17 17 18 18 18 19 19 19 19 20 20
11 10 11 11 12 12 13 12 13 14 15 16 17 18 18 18 19 18 19 18 17 16 15 16 16 15 14 14 15 17 16 16 17 18 18 18 18 18 18 18 18 18 19 19 19 19 19 20 20
10 9 8 12 12 13 12 11 13 14 14 15 15 17 18 18 18 20 21 21 20 17 15 16 15 16 15 16 16 17 15 17 18 19 19 19 19 19 19 19 19 19 19 19 19 19 20 20 20
9 5 8 11 13 13 12 11 13 14 15 15 15 16 17 17 18 19 20 19 18 16 15 15 15 15 16 15 16 17 16 16 18 19 19 19 19 19 19 19 19 19 19 19 19 19 20 20 20
5 6 9 10 13 13 12 10 12 14 14 14 14 15 16 16 16 15 17 17 17 16 15 15 15 15 16 16 15 17 16 16 16 19 19 19 19 19 19 19 19 19 19 19 19 19 19 19 20
8 8 9 10 12 12 11 11 12 14 13 12 13 14 15 15 14 15 15 16 15 15 14 15 15 14 14 15 15 15 16 16 16 17 19 19 18 18 18 18 19 19 19 19 19 19 19 19 19
9 9 9 10 12 11 11 11 12 14 13 13 13 13 14 14 13 14 15 14 14 14 14 14 15 15 15 15 16 16 16 15 15 16 17 18 18 18 18 18 19 18 19 19 19 19 18 19 19
10 10 10 10 12 11 11 11 12 14 14 14 13 14 14 14 14 13 13 13 13 13 13 14 14 15 15 15 15 15 16 17 16 16 16 16 18 19 19 18 18 18 18 18 17 17 18 17 18
10 11 10 11 11 10 11 8 13 12 12 11 12 11 11 13 13 13 13 13 12 12 13 13 14 14 15 15 15 15 15 15 15 17 15 16 17 16 17 18 18 18 18 18 18 18 17 17 17
10 11 12 11 11 12 11 12 11 12 12 10 11 12 11 11 12 11 11 11 10 12 12 13 13 13 14 14 13 14 14 14 15 15 15 15 15 15 16 16 16 17 18 17 17 16 17 17 18
12 12 11 11 12 12 11 12 11 11 11 11 12 11 12 11 11 11 10 10 10 12 12 12 13 13 13 13 13 14 14 14 14 14 15 15 15 14 15 15 15 15 15 15 15 15 15 15 15
12 11 12 12 12 13 12 12 10 11 10 11 11 10 9 9 10 10 10 10 9 10 10 11 12 11 13 13 13 13 14 14 14 15 14 15 15 14 16 15 15 15 15 15 14 14 14 14 14
12 11 12 14 13 12 13 11 11 10 10 10 9 9 9 9 8 9 9 9 9 10 11 10 10 10 11 11 11 11 12 13 14 15 15 15 15 15 16 15 15 15 15 14 15 14 14 14 14
13 12 12 13 14 13 12 11 9 9 9 9 9 9 8 8 8 8 9 8 9 10 10 11 10 11 11 11 11 12 12 12 12 12 13 14 14 14 14 14 15 15 14 14 13 14 14 13 13
14 15 13 12 14 14 13 12 12 9 9 9 9 8 8 7 7 8 8 9 10 10 10 10 10 10 10 11 11 11 11 11 12 12 12 12 12 12 12 13 13 13 13 13 13 13 13 13 13
14 13 15 15 14 14 13 12 11 11 9 9 8 8 8 7 8 9 10 9 10 10 9 9 9 9 9 10 10 10 10 10 11 11 11 11 12 12 13 12 12 12 12 13 13 13 13 13 13
14 13 14 12 14 11 11 11 12 11 10 9 9 9 10 9 10 9 9 9 9 9 9 8 8 8 8 9 9 9 9 9 10 9 10 10 10 11 11 11 11 11 12 12 12 12 12 12 12

GFSSGP_925_temp_090.txt.gz
Temp
17 17 17 17 15 14 15 17 18 19 21 22 23 24 22 22 23 22 22 23 22 21 20 20 20 19 20 20 20 20 20 20 20 20 19 19 19 19 18 18 18 19 19 19 19 18 17 17 17
16 17 18 14 14 14 15 17 18 19 21 21 22 23 23 22 21 21 21 20 22 21 21 20 20 19 20 20 20 20 20 20 20 20 19 19 19 19 19 18 18 19 19 19 18 17 19 19 18
17 16 14 14 13 13 15 18 18 20 20 21 22 23 22 21 21 20 22 20 21 21 21 20 21 20 20 20 20 20 20 20 20 20 20 20 19 20 19 18 19 19 19 19 18 19 19 19 18
16 15 13 15 14 15 16 17 18 19 21 22 22 21 21 21 21 22 22 21 21 21 21 21 21 21 21 21 20 20 20 20 19 19 20 19 19 20 19 19 19 19 19 19 19 19 19 19 18
15 12 13 12 13 15 16 17 18 18 18 20 21 22 21 21 20 20 22 22 21 20 20 20 21 21 20 20 20 20 19 19 19 19 19 19 19 19 19 19 19 19 18 18 19 18 19 19 19
12 12 12 12 14 15 15 16 18 19 18 19 20 22 20 20 19 18 20 21 21 20 20 20 19 20 20 19 19 19 19 19 19 19 19 19 19 19 19 19 19 18 18 18 18 18 19 19 19
12 11 12 13 13 15 17 17 18 18 18 18 21 21 21 17 18 16 17 20 19 20 20 19 19 18 18 18 18 18 18 19 19 19 19 19 19 19 19 19 19 18 18 18 18 18 18 19 19
12 12 13 13 13 14 16 16 18 17 17 19 21 19 20 18 19 16 16 17 19 20 20 19 18 18 17 17 17 17 18 18 19 19 19 19 19 19 19 18 18 18 19 18 18 17 17 19 19
14 11 11 13 14 14 16 15 17 17 17 17 19 19 17 16 17 16 15 16 16 17 18 19 18 18 17 18 18 18 17 17 18 19 19 19 19 19 19 18 18 18 18 18 18 18 18 19 19
11 9 11 13 14 13 14 14 14 15 15 16 17 17 19 17 15 15 15 15 15 15 16 17 17 18 18 18 19 19 18 18 18 18 19 19 19 18 18 18 18 18 18 17 17 18 19 19 19
12 10 12 14 14 14 14 14 15 14 15 15 15 16 16 18 16 16 15 15 16 16 16 17 17 17 17 17 18 19 20 18 19 19 18 18 18 18 18 18 17 17 17 17 18 18 18 19 19
11 13 13 14 14 13 13 14 14 14 14 15 15 16 16 16 15 15 16 17 17 17 18 18 17 17 17 17 18 19 20 20 19 18 17 16 17 17 17 18 17 16 17 17 18 18 19 19 19
11 12 12 12 12 12 13 13 12 13 14 14 15 16 15 16 17 17 19 19 18 17 17 16 17 18 18 17 16 16 17 18 20 18 18 17 15 16 17 17 17 16 17 17 18 18 19 19 19
11 10 11 11 11 12 12 12 12 13 14 14 15 15 15 15 16 17 17 18 18 18 18 17 17 18 18 16 14 14 15 18 19 19 18 17 17 15 16 16 16 16 16 18 18 19 19 19 19
10 9 10 11 11 11 12 11 11 13 13 13 14 15 15 15 17 17 18 18 18 18 18 17 16 16 16 16 14 14 14 16 18 18 17 18 17 16 16 16 16 17 17 18 18 18 19 19 19
9 9 7 10 12 11 11 10 12 13 13 13 14 14 15 15 16 18 18 18 19 18 17 18 17 16 17 16 15 15 15 15 16 15 15 18 17 17 16 17 17 18 18 18 18 18 18 19 19
7 5 7 9 12 11 11 10 11 12 12 12 13 14 13 14 15 17 19 18 18 18 17 16 16 17 17 15 14 15 16 15 15 16 16 18 18 17 17 17 18 18 18 18 18 18 18 19 19
6 8 7 8 11 11 11 11 12 13 12 12 11 12 12 13 14 17 17 17 17 17 17 17 17 16 16 15 14 15 16 16 17 17 17 17 17 18 18 18 18 18 18 18 18 19 19 19 19
7 7 7 9 11 10 10 11 11 12 11 11 10 10 11 12 14 15 14 16 16 16 15 16 15 16 16 15 15 15 16 15 15 16 16 16 17 18 18 18 18 18 18 19 19 19 19 19 19
8 9 9 10 12 11 11 11 11 12 11 12 12 11 12 13 13 12 13 13 13 14 14 14 14 14 14 15 15 14 16 15 15 15 15 16 19 19 18 19 19 19 19 19 19 19 19 19 19
9 10 10 9 10 11 11 11 11 13 13 12 12 11 12 12 12 12 12 12 12 12 13 13 14 14 14 15 15 15 15 15 15 15 15 16 17 18 18 18 19 18 18 18 18 19 19 18 18
10 11 11 11 10 11 11 7 10 10 11 10 12 11 11 12 12 12 12 11 11 11 12 13 13 14 14 14 14 15 15 14 14 15 15 15 16 17 17 18 17 18 18 18 18 18 17 17 16
11 11 11 11 11 10 10 11 11 11 12 10 12 12 12 12 12 11 11 11 11 11 12 12 13 13 14 14 14 13 14 14 14 14 14 14 14 15 16 16 16 17 17 17 17 17 16 16 17
12 11 11 11 11 11 9 10 10 11 10 11 12 10 10 11 11 11 10 10 10 10 11 11 11 12 12 13 13 13 13 14 13 14 14 14 14 14 14 14 14 15 15 15 16 16 17 17 16
11 11 12 12 10 12 12 12 10 10 11 11 11 10 9 9 9 9 9 8 8 8 8 9 10 9 11 11 12 12 13 13 13 13 13 13 13 14 14 14 14 14 15 15 15 16 15 16 14
12 11 12 13 13 11 12 11 11 10 10 10 9 9 9 8 8 8 8 7 7 7 8 8 8 9 9 10 10 11 12 13 13 13 13 14 14 13 13 14 14 14 14 14 15 15 14 14 14
12 12 12 13 13 11 12 11 9 9 10 9 9 8 8 7 7 7 7 7 7 7 8 8 9 9 9 10 10 11 11 11 12 12 12 11 12 13 13 13 13 13 14 14 13 14 14 13 14
12 14 12 12 13 14 12 12 11 9 8 8 8 8 7 7 7 6 6 6 7 8 8 9 9 9 9 9 10 10 10 10 10 10 11 11 11 12 12 13 13 13 13 14 14 14 14 14 14
13 13 13 14 13 13 13 11 11 9 8 7 8 8 7 7 7 6 7 6 8 8 8 8 8 8 8 8 8 9 9 9 10 10 10 10 11 11 11 11 11 11 12 12 12 13 13 13 13
13 13 13 12 13 10 10 11 11 10 9 8 8 8 8 7 7 8 8 8 7 7 7 7 7 7 7 8 8 8 8 8 8 8 8 9 9 9 10 10 10 11 11 11 11 11 12 12 12

GFSSGP_925_temp_093.txt.gz
Temp
16 17 18 17 15 13 15 16 18 19 20 20 21 22 22 22 23 22 21 21 20 21 20 20 20 20 20 20 20 20 21 20 20 19 19 19 19 18 19 19 19 19 19 19 18 18 17 17 17
16 17 17 13 13 14 14 15 18 18 19 18 20 22 21 22 21 20 20 21 21 21 20 20 20 20 20 20 20 20 20 20 20 20 19 19 19 18 18 19 19 19 19 18 18 17 17 17 17
16 16 14 13 12 13 15 16 17 18 18 19 20 21 21 21 20 20 21 21 20 20 20 20 20 20 20 20 20 20 20 20 20 20 20 19 19 19 19 18 19 19 19 18 17 17 17 17 17
16 15 12 13 14 14 15 17 17 17 19 19 20 20 21 20 20 20 20 20 21 20 20 20 20 20 20 20 21 20 20 19 19 20 19 19 19 20 19 18 19 19 19 19 19 19 18 17 17
15 12 12 12 12 14 15 16 17 17 18 18 18 20 21 20 20 20 20 19 20 21 20 20 20 20 20 20 20 20 20 20 19 19 19 19 19 19 19 19 19 19 19 19 19 19 18 18 18
12 12 12 12 13 14 15 15 17 18 17 17 18 18 20 18 18 21 20 19 19 20 19 20 20 20 20 20 19 19 19 19 19 19 19 19 19 19 19 19 19 19 19 19 19 19 19 18 18
11 11 12 12 13 14 15 16 17 16 16 18 17 18 18 18 18 17 19 18 22 21 20 19 19 19 18 18 18 18 18 18 18 19 19 19 19 19 19 19 19 19 18 18 18 18 19 19 18
10 11 12 12 12 14 16 15 17 16 16 16 17 17 16 15 15 16 16 17 17 20 20 20 19 18 18 18 18 18 18 18 18 18 19 19 19 19 19 19 19 18 18 18 18 18 19 19 18
12 10 10 12 13 14 14 13 15 16 15 15 17 17 17 16 16 15 15 15 16 16 17 19 19 18 17 18 18 18 18 18 18 18 18 19 19 19 19 19 19 18 18 18 18 18 18 19 19
11 9 10 12 13 13 13 13 13 14 14 14 16 16 17 17 17 16 15 15 14 15 16 16 17 17 18 18 18 18 19 19 19 19 18 18 19 19 19 19 19 18 18 18 18 18 17 18 19
11 10 11 13 13 13 13 12 14 13 13 14 14 14 15 16 16 15 15 15 15 14 15 15 16 17 18 18 19 19 19 20 20 20 20 19 18 18 18 18 18 18 18 18 18 17 18 18 19
11 12 12 13 12 12 12 13 12 12 13 14 14 14 14 14 14 15 15 16 16 16 16 16 16 17 17 18 19 19 19 19 21 21 20 19 19 17 18 18 18 18 18 18 17 17 18 19 19
11 11 11 11 11 11 12 11 11 12 13 13 13 14 13 13 14 17 18 16 17 17 17 17 17 17 17 18 18 19 19 18 20 20 20 20 18 17 17 17 17 17 17 17 17 17 18 19 19
10 10 10 10 10 10 10 11 11 12 13 13 14 13 13 13 14 16 18 17 16 17 18 18 18 18 17 17 17 18 18 18 17 17 19 21 19 18 16 16 17 17 17 17 17 17 18 18 19
10 9 9 10 10 10 11 10 10 12 11 12 12 13 13 13 15 15 17 18 19 19 17 18 17 17 16 17 17 17 17 16 17 16 17 18 20 18 18 16 16 16 16 16 17 17 18 18 19
8 8 7 9 11 11 11 9 11 12 11 11 11 13 13 12 14 16 17 17 18 18 18 17 17 16 17 17 17 16 16 15 15 16 16 15 18 18 17 16 16 16 15 16 16 17 17 18 18
6 5 7 8 11 11 10 9 11 12 12 12 12 11 11 12 12 15 16 17 18 19 18 17 17 16 16 16 16 15 15 15 15 15 15 15 15 16 16 17 16 14 14 16 16 17 17 18 18
4 5 7 7 10 10 9 10 11 12 11 11 10 10 11 11 11 14 16 17 18 17 17 16 16 16 16 16 14 14 14 14 14 15 15 15 15 15 15 16 16 16 15 16 15 17 17 18 18
6 6 7 8 10 9 9 9 10 11 10 9 9 9 9 10 11 13 15 15 15 16 16 15 15 16 15 14 14 14 15 15 15 15 15 15 15 15 15 15 16 17 15 17 17 16 17 17 18
7 7 8 9 10 10 10 10 11 11 10 10 10 10 10 10 12 12 12 12 13 13 14 14 14 14 14 14 14 14 15 15 16 16 15 15 15 15 16 16 16 16 16 16 17 17 17 18 18
8 8 9 8 10 10 10 10 10 11 11 10 11 10 11 11 11 11 12 12 12 13 13 13 14 14 15 14 14 14 14 14 15 15 15 16 15 15 15 15 17 17 17 17 17 18 17 17 18
9 11 11 10 11 9 11 7 10 10 11 10 10 11 11 12 12 12 11 11 11 12 13 13 13 13 13 14 14 14 14 14 14 15 14 15 14 14 15 15 16 17 17 18 18 18 17 17 17
11 11 11 11 11 11 10 9 9 10 10 10 10 11 10 11 11 11 11 10 10 11 11 11 12 12 12 14 13 14 13 14 14 15 14 14 14 15 15 16 17 16 17 16 18 16 16 16 16
12 11 12 11 11 11 9 8 8 10 10 10 11 10 9 10 10 9 9 9 8 9 9 9 9 10 11 11 12 13 14 13 14 14 14 14 14 14 14 15 15 15 14 15 17 17 17 17 15
10 10 9 10 11 11 11 10 9 10 10 11 10 9 9 8 9 8 8 8 7 7 7 8 8 9 9 10 11 11 12 12 13 13 13 13 13 13 13 14 14 15 14 14 14 14 15 15 15
12 11 12 12 12 11 12 12 11 10 10 10 9 9 8 8 7 7 7 7 6 6 6 6 7 8 8 9 10 9 10 10 11 12 12 13 13 13 13 13 13 13 13 13 13 14 14 14 14
12 12 11 12 12 10 11 11 9 9 10 9 9 8 7 7 7 7 6 6 6 6 6 7 7 8 9 9 9 8 8 9 9 9 11 11 11 12 12 13 13 13 13 13 13 13 13 14 13
12 12 12 12 13 13 12 12 12 9 8 7 7 7 7 7 7 6 6 6 6 7 7 7 7 8 8 8 9 8 9 9 9 9 8 8 9 10 10 11 11 12 12 13 13 13 13 13 13
12 11 11 12 12 13 12 12 11 9 7 7 7 7 7 7 6 6 6 6 7 7 7 7 7 7 7 8 8 8 8 8 8 8 8 8 9 9 9 10 11 11 11 12 12 12 13 13 13
13 13 12 11 12 10 11 12 11 9 8 8 7 8 7 7 6 6 6 6 6 6 6 6 6 6 6 6 7 7 7 7 7 6 7 7 8 8 8 8 9 9 10 10 10 11 11 11 12

GFSSGP_925_temp_096.txt.gz
Temp
16 17 18 17 15 13 14 15 16 18 19 19 18 20 22 21 23 21 21 21 20 21 20 20 21 20 20 20 20 20 20 20 19 19 19 19 19 18 18 19 19 19 19 19 19 18 18 18 17
16 17 17 13 13 14 15 15 17 17 18 17 19 20 20 21 20 19 21 21 20 20 20 20 21 20 20 20 20 20 20 20 20 19 19 19 19 18 19 19 19 19 19 19 18 17 17 17 17
16 17 14 12 11 14 15 16 16 17 17 18 19 20 20 21 20 20 19 20 20 20 20 20 20 20 20 20 20 20 20 20 20 20 19 19 19 18 19 19 19 19 18 19 17 17 17 17 17
16 15 12 12 12 13 14 16 15 16 18 18 18 19 20 19 18 17 19 19 19 19 20 20 20 20 20 20 20 20 20 20 20 19 19 19 19 19 19 19 19 19 18 19 17 17 17 17 17
15 11 11 11 12 13 13 15 16 17 17 17 17 18 17 18 18 17 17 19 19 19 20 20 20 20 20 20 20 20 20 19 19 19 19 19 19 19 20 19 19 19 19 19 19 17 17 17 17
11 11 12 12 12 13 14 15 16 17 16 16 17 16 18 18 17 16 17 17 21 20 20 20 19 19 20 20 20 20 19 19 19 19 19 19 19 19 19 19 19 19 19 19 19 18 17 17 17
11 10 12 12 12 14 15 15 16 16 15 17 16 17 17 16 16 15 15 16 17 22 20 20 19 19 18 18 18 18 18 18 18 19 19 19 19 19 19 19 19 19 19 19 19 18 18 17 17
10 10 11 11 11 13 14 14 15 15 15 15 16 16 16 16 17 18 16 16 16 17 20 20 20 19 19 19 18 18 18 18 18 19 19 19 19 19 19 19 19 19 19 18 18 19 18 18 17
11 10 10 12 11 13 13 12 13 14 14 14 15 16 16 17 17 17 17 17 16 16 17 17 20 19 19 19 18 18 18 18 19 19 19 18 18 19 19 19 18 19 18 18 18 18 18 18 18
10 9 10 12 12 13 12 13 13 13 13 13 14 15 17 17 17 16 16 15 16 16 15 16 16 17 18 18 18 18 18 19 19 19 19 18 18 18 19 19 18 18 18 18 18 18 18 18 18
10 10 11 12 13 12 12 11 12 13 12 12 13 13 13 15 15 14 15 16 15 16 16 15 16 16 17 18 18 18 19 19 20 20 21 20 20 18 18 18 18 18 18 18 18 18 17 17 18
11 11 11 11 10 11 11 12 11 11 12 13 12 12 12 12 12 14 14 16 17 16 15 15 16 16 17 17 18 18 19 19 20 21 20 21 21 20 19 18 18 18 18 18 18 18 18 17 18
10 10 10 10 10 10 10 10 10 10 11 12 12 12 11 11 13 15 15 16 17 15 16 16 15 16 17 17 18 18 19 19 19 19 19 18 20 20 20 19 18 18 18 18 18 17 17 17 18
9 9 9 10 10 10 10 11 10 11 11 12 12 12 11 11 12 14 15 16 16 17 16 16 16 17 17 17 17 18 18 19 19 18 18 17 18 19 19 19 18 18 18 18 18 18 17 17 17
9 8 8 9 10 10 10 9 9 10 10 10 11 11 11 11 13 13 14 15 16 17 18 17 17 16 16 16 17 17 18 18 18 18 17 17 17 17 17 18 18 17 17 18 17 17 17 17 17
8 8 7 10 10 11 10 9 10 10 10 10 10 11 12 12 12 13 15 15 17 17 17 18 18 17 17 16 16 17 17 17 18 17 17 16 16 16 16 16 16 17 16 16 16 16 16 16 17
6 4 7 8 10 10 10 9 10 10 11 11 11 11 11 11 10 12 14 15 17 17 18 18 17 17 17 16 16 16 16 16 16 16 16 16 15 15 15 15 15 16 16 16 15 16 16 15 16
6 4 7 7 9 10 9 9 10 11 10 10 10 10 10 10 10 11 14 15 16 17 17 16 16 16 15 15 15 14 14 14 14 14 14 15 16 16 15 15 15 15 14 14 14 14 16 16 15
5 6 6 8 9 9 8 9 9 10 9 8 8 8 8 9 10 11 12 13 15 15 15 15 16 16 15 14 13 13 13 13 14 15 15 14 15 15 14 15 15 15 14 14 15 14 14 15 15
7 7 8 9 10 11 10 10 10 10 9 10 9 10 10 10 10 12 12 12 12 13 13 14 14 14 14 14 14 14 14 14 14 14 15 15 15 15 15 15 15 15 15 15 15 14 14 15 15
8 8 8 9 10 10 9 9 9 11 10 10 10 11 12 11 11 11 11 12 12 12 12 13 13 13 13 13 14 14 14 13 14 14 14 15 15 16 15 15 15 14 14 14 14 14 14 15 15
9 11 11 10 10 10 11 9 9 10 10 9 9 10 10 11 11 11 11 11 10 11 11 12 12 13 13 14 13 14 14 13 13 13 14 15 15 15 15 15 15 14 14 14 15 14 15 15 15
11 12 11 11 10 11 10 10 9 9 10 10 10 10 10 10 10 10 9 9 8 9 10 10 11 11 11 12 13 13 13 14 13 13 14 15 15 14 14 14 14 14 14 13 14 14 16 16 16
12 11 11 11 11 11 9 10 7 10 10 10 11 9 9 9 9 9 8 8 7 7 8 9 9 9 10 10 11 12 13 13 13 13 13 13 14 14 14 14 14 14 14 14 14 14 16 16 16
11 10 11 8 9 9 11 10 8 10 10 10 10 9 8 8 8 8 7 7 6 6 6 7 7 7 8 8 9 10 10 11 11 11 12 12 13 13 13 13 13 13 13 13 14 14 15 16 16
11 11 11 10 12 12 11 12 10 10 10 9 9 8 8 8 7 7 7 6 6 5 5 6 6 6 7 8 8 9 8 9 10 9 10 11 11 12 13 13 13 13 13 13 13 14 14 15 14
12 12 11 12 12 12 10 11 10 9 9 9 8 8 8 7 7 7 6 5 5 5 5 5 6 6 7 7 7 7 8 8 7 8 9 9 9 10 11 12 12 13 13 14 14 13 13 13 13
11 11 12 11 12 13 12 11 12 9 8 7 6 6 7 7 7 6 6 5 5 5 5 6 6 6 7 7 7 7 8 8 7 8 8 8 8 8 9 10 10 10 11 11 12 12 13 13 13
11 11 11 11 12 13 12 12 11 10 8 8 6 7 7 7 6 6 5 5 6 6 6 6 6 6 6 6 6 6 6 6 6 6 7 7 8 8 8 8 9 9 9 10 10 10 11 12 13
13 13 11 10 11 10 10 11 10 9 8 7 7 7 7 7 6 6 5 6 5 5 5 5 5 5 5 6 6 5 5 6 6 5 5 5 6 6 7 8 8 8 8 8 9 9 9 10 10

GFSSGP_925_temp_099.txt.gz
Temp
16 17 18 18 19 17 18 18 17 19 19 20 19 20 22 22 24 24 20 20 20 20 20 20 21 21 21 20 20 20 20 20 20 20 20 20 20 18 18 18 18 19 19 19 19 19 19 18 17
16 17 18 16 18 20 20 16 18 19 19 18 19 20 21 22 21 21 20 19 19 20 20 20 20 20 20 20 20 20 20 20 20 19 19 20 20 18 19 19 18 19 19 19 19 18 18 18 17
16 17 17 16 15 19 20 16 17 18 18 19 20 20 21 19 20 18 17 18 19 19 20 20 20 20 20 20 20 20 20 20 20 20 19 20 20 19 19 19 19 19 19 19 18 18 18 17 17
16 15 14 16 16 15 17 17 16 18 19 18 18 21 19 17 17 15 16 18 18 19 19 20 20 20 20 20 20 20 20 20 20 19 20 19 19 19 19 19 19 19 19 19 17 17 17 17 17
15 14 14 14 15 14 14 15 16 18 18 19 18 20 18 17 15 15 16 17 18 18 19 20 20 20 20 20 20 20 20 20 20 19 19 19 19 19 19 19 19 19 18 19 17 17 17 17 17
13 13 14 15 14 14 15 15 16 17 17 18 18 18 19 17 17 16 16 16 17 18 19 20 20 20 20 20 20 19 19 19 19 19 19 19 19 19 19 20 19 18 18 19 18 17 17 17 18
13 13 13 13 14 14 15 14 16 16 16 17 16 18 19 17 17 17 17 17 17 17 18 19 20 19 19 19 19 19 19 19 19 19 19 19 19 19 19 19 19 18 18 19 19 17 17 17 18
12 12 12 12 13 15 14 14 14 15 16 16 16 17 18 17 17 17 18 17 17 16 17 18 19 19 19 19 19 19 19 19 19 20 20 19 19 19 19 19 19 19 18 18 19 19 17 17 17
11 12 12 13 12 14 13 13 14 14 14 15 16 16 17 16 16 17 17 17 17 17 17 17 17 19 19 20 19 19 19 19 19 19 20 19 19 19 18 18 19 19 18 19 18 19 18 17 17
11 11 12 12 12 13 13 13 13 14 14 14 15 15 15 16 15 14 14 15 15 16 17 17 16 17 17 18 19 19 19 19 19 20 20 19 19 19 18 18 19 19 19 19 18 18 18 18 16
10 12 11 12 12 11 12 12 13 13 13 13 14 15 15 14 14 14 14 14 15 17 16 16 16 16 16 17 17 17 18 19 19 20 20 20 20 19 19 18 18 18 18 18 18 17 17 17 16
11 11 11 11 11 11 11 12 12 12 13 14 14 14 12 13 13 13 14 14 15 16 17 16 16 16 16 16 17 18 18 19 19 19 19 18 20 19 20 20 19 18 18 18 18 18 17 18 17
10 10 10 10 10 10 11 11 11 12 12 13 13 13 12 12 13 13 14 14 15 16 17 17 15 15 15 16 16 17 18 18 19 18 18 18 18 19 19 19 19 19 19 18 18 18 17 17 17
9 9 9 10 10 10 10 10 10 12 12 12 12 13 13 12 12 12 13 13 14 15 17 17 16 15 15 16 16 17 18 18 18 18 18 18 18 18 18 18 18 17 18 18 19 19 18 17 17
9 9 9 9 10 10 10 11 9 11 11 11 12 12 12 13 12 12 13 13 14 15 17 17 17 16 16 16 16 16 17 17 17 18 18 18 18 18 17 17 17 18 17 17 18 18 18 17 17
8 8 10 10 10 10 10 12 12 11 11 11 12 13 13 13 12 12 12 13 14 14 16 17 17 17 17 16 16 16 16 16 17 17 17 17 16 16 15 15 16 16 17 16 16 16 17 16 17
7 8 8 9 10 10 10 10 11 11 11 12 12 12 12 12 12 12 11 13 14 14 15 16 17 17 17 16 16 16 16 16 16 16 16 16 16 15 14 15 15 16 16 16 16 15 15 17 16
7 7 8 8 10 9 9 9 11 12 11 11 11 11 10 10 11 11 11 12 13 13 15 15 16 16 15 15 15 14 14 15 15 16 16 16 16 15 14 14 14 15 15 15 15 15 16 15 15
5 6 6 8 9 9 9 9 11 12 10 10 10 11 11 11 11 10 11 11 11 12 14 15 15 15 14 14 13 13 13 13 13 13 15 15 15 16 14 14 14 14 15 15 14 15 14 14 15
7 7 7 9 10 11 11 10 11 11 10 10 11 12 12 12 12 12 12 12 12 12 12 13 13 13 14 14 14 14 14 14 14 14 14 14 15 14 14 14 14 14 14 14 14 14 14 14 14
7 8 8 8 10 11 10 10 10 11 10 11 10 11 11 11 12 11 11 11 11 11 11 12 12 12 13 13 13 13 13 13 13 14 13 14 14 15 14 14 15 15 14 14 14 14 14 14 13
9 10 10 10 10 11 10 12 10 10 10 10 10 11 10 10 10 10 10 9 9 9 10 11 11 11 11 12 12 13 13 13 13 13 14 14 14 14 14 14 15 15 14 14 13 13 13 14 14
10 12 12 11 10 10 10 10 11 10 11 11 11 10 9 10 9 9 9 8 7 7 8 8 9 10 10 11 12 12 12 13 13 13 13 13 13 13 14 14 14 14 14 15 13 13 13 13 14
11 11 11 11 11 11 9 10 11 11 10 11 11 10 9 9 8 8 7 7 6 6 7 7 8 8 9 9 9 10 11 11 11 11 12 12 12 13 14 14 14 14 14 14 14 13 13 13 13
11 10 9 9 11 11 11 10 12 11 11 10 10 9 8 8 8 7 7 6 6 5 5 6 6 6 6 7 7 8 8 9 9 9 9 9 11 11 12 13 13 13 13 13 13 13 13 13 13
11 11 11 10 11 12 11 11 12 10 10 9 9 8 8 8 7 7 6 5 5 5 5 5 5 6 6 7 7 8 7 7 7 7 8 8 9 9 11 11 12 13 13 13 13 13 13 13 13
11 11 11 11 12 12 12 11 10 9 9 7 6 7 7 7 6 6 5 5 4 4 4 4 4 5 5 6 6 6 6 6 6 7 7 7 8 9 9 9 10 11 11 11 12 13 13 13 14
12 12 12 11 12 13 12 12 12 9 8 7 6 6 6 6 7 6 5 5 4 4 4 5 5 5 5 6 5 5 6 7 7 7 7 7 7 7 8 9 9 9 10 9 11 11 11 12 13
11 11 11 11 11 13 12 12 10 8 8 7 7 7 6 6 6 6 5 5 4 5 5 5 5 5 5 6 6 6 6 6 6 6 6 6 7 7 7 7 7 8 8 8 9 9 10 10 10
13 12 11 10 11 10 11 13 10 9 9 7 8 7 7 7 6 6 6 5 4 4 4 4 5 5 5 5 6 5 5 5 5 5 5 5 6 6 6 6 6 6 7 7 7 7 7 7 8

GFSSGP_925_temp_102.txt.gz
Temp
17 17 18 22 24 24 27 25 24 23 24 24 24 24 26 26 26 26 23 20 20 21 22 20 20 21 20 21 21 21 21 20 21 21 20 20 20 19 19 19 19 19 19 19 19 19 19 19 18
16 18 20 23 24 26 28 23 23 23 23 23 24 24 25 25 24 24 22 19 19 21 22 22 21 20 20 21 21 21 21 20 20 20 20 20 20 19 18 19 19 19 19 19 20 19 19 18 17
16 17 22 23 25 27 26 22 23 22 23 24 24 24 24 23 23 22 20 19 18 20 21 21 20 20 20 20 20 20 20 20 20 20 20 20 20 20 19 19 19 19 19 19 19 19 19 18 17
18 21 21 22 25 23 22 22 21 22 22 23 23 24 22 19 20 18 17 17 17 19 20 21 20 20 20 20 20 20 20 20 20 20 20 20 20 19 20 19 19 19 19 19 19 18 18 18 18
18 21 21 22 23 21 21 21 21 22 22 23 22 23 22 20 19 18 18 17 16 18 19 20 20 20 20 20 20 20 20 20 20 20 20 19 19 19 20 19 19 19 18 19 19 18 18 18 17
19 20 21 23 22 20 20 20 20 21 22 22 22 22 23 19 18 17 18 18 17 17 18 19 20 20 20 20 20 20 19 19 19 19 19 19 19 19 19 19 19 19 18 19 19 17 17 17 17
20 20 21 20 20 20 19 19 20 20 21 22 21 22 23 21 18 17 17 18 18 17 17 18 20 19 19 19 19 19 19 19 20 20 20 19 19 19 19 19 19 19 18 18 18 18 17 17 17
19 20 19 19 20 20 17 18 18 19 20 20 20 22 22 21 18 17 17 17 18 17 17 17 18 20 20 19 19 20 20 20 20 20 20 19 19 19 19 19 18 19 19 18 18 18 17 17 17
17 20 21 20 18 19 17 18 18 18 18 19 20 20 20 19 18 18 17 18 18 18 17 17 17 17 19 19 19 20 20 20 20 20 20 20 19 20 19 19 19 19 19 18 18 18 18 17 17
18 19 19 17 17 17 17 16 17 17 19 19 20 20 20 19 18 18 17 17 17 17 17 17 17 17 16 17 18 18 18 19 19 19 19 19 20 20 20 20 19 18 18 18 18 18 18 18 18
15 18 16 15 15 15 16 16 17 17 17 19 19 20 19 18 17 18 17 17 17 16 17 17 16 17 17 16 17 16 18 18 19 19 19 20 19 19 19 20 19 18 18 18 18 18 17 18 19
16 14 15 15 14 14 15 16 16 17 18 19 19 18 18 17 17 17 17 17 17 16 16 16 17 16 16 16 17 17 17 18 18 19 19 19 17 17 18 20 20 20 20 19 20 20 19 19 19
15 14 13 14 14 14 14 14 15 16 18 18 17 17 17 17 16 16 16 16 16 16 16 16 16 16 15 16 16 17 18 18 18 17 18 18 18 18 18 18 20 20 19 19 19 20 20 20 19
13 13 14 13 14 13 13 15 13 18 17 16 16 16 17 17 16 16 16 17 17 17 16 16 17 16 16 15 15 16 17 18 18 18 17 17 18 17 17 18 18 19 20 20 19 19 20 19 20
12 14 14 13 13 13 13 15 13 17 16 15 16 17 17 17 16 16 16 16 16 16 16 16 17 16 15 15 16 16 16 16 17 17 17 17 18 18 18 18 17 17 18 19 19 19 19 18 18
13 13 16 14 13 12 13 18 18 17 16 15 16 16 16 16 16 16 15 16 16 15 16 16 16 17 16 15 16 16 16 16 16 17 17 17 17 17 17 17 18 18 18 17 17 17 17 16 16
14 14 14 15 13 13 13 16 18 17 15 15 16 16 16 16 15 15 15 15 14 15 15 15 15 16 16 16 16 16 16 16 16 16 17 17 17 17 17 17 17 17 16 16 16 17 16 16 15
13 12 13 13 14 13 13 14 17 16 15 15 15 15 15 15 15 15 14 14 13 14 14 14 15 15 16 16 15 15 15 15 15 16 16 16 17 17 16 17 17 17 17 16 16 15 16 16 15
10 11 11 12 13 12 14 15 16 16 15 15 13 13 14 15 16 15 14 14 14 13 13 14 15 15 15 15 14 15 16 16 15 15 15 15 16 16 16 16 16 16 17 17 17 17 15 15 15
11 11 12 13 13 13 15 15 16 15 14 14 14 13 13 14 15 14 12 11 12 13 14 14 15 15 15 14 14 15 16 15 15 15 15 15 15 15 16 16 15 16 16 17 17 16 15 15 15
12 13 12 11 13 15 14 17 15 14 14 14 14 12 12 12 12 12 11 10 9 10 10 12 12 12 13 13 13 13 13 13 13 14 14 14 14 14 15 15 15 15 15 16 16 16 15 15 15
12 13 13 12 13 13 14 14 16 14 14 14 14 13 12 11 11 10 9 9 8 8 8 9 10 10 10 11 12 12 14 15 15 14 14 15 15 15 15 15 15 15 15 15 15 15 15 15 14
13 13 13 13 12 11 14 11 17 14 15 15 14 13 11 10 9 9 8 7 7 7 8 8 8 8 9 9 10 10 13 13 13 13 13 13 12 13 13 14 15 14 14 14 14 14 14 14 14
13 13 12 13 12 12 15 13 17 15 13 13 13 11 10 9 8 8 7 6 6 6 7 7 8 7 7 7 8 9 8 10 10 10 10 10 10 11 11 13 14 14 14 14 14 15 14 13 13
12 11 13 14 12 15 14 12 16 13 11 10 10 9 9 8 7 7 6 6 5 5 5 6 6 6 6 6 7 7 8 6 7 7 7 7 8 8 10 11 12 13 14 14 14 13 13 13 13
11 11 13 14 15 16 13 13 15 10 10 9 8 8 8 7 7 6 6 5 5 5 5 5 5 5 6 6 6 6 7 6 5 7 6 6 7 7 8 10 10 10 11 12 13 13 13 12 12
11 12 12 12 13 13 16 14 11 10 9 8 7 7 7 7 6 6 5 5 4 4 4 4 4 5 5 5 6 6 6 7 6 7 6 6 7 7 7 8 9 9 9 10 10 11 11 12 12
13 14 12 12 14 15 17 15 13 10 9 8 7 7 6 6 6 6 5 4 4 4 4 4 4 5 5 5 5 5 4 4 5 5 5 6 6 6 6 6 7 8 8 8 9 8 9 10 10
13 13 13 13 13 15 16 17 11 9 8 8 7 7 6 6 6 6 6 6 6 4 5 5 5 5 5 5 5 5 5 5 5 5 5 5 5 6 5 6 6 6 6 6 7 7 7 8 8
15 15 14 14 14 15 15 16 12 10 9 8 8 7 7 8 8 9 8 7 6 6 6 5 5 5 4 5 5 5 5 5 5 5 5 5 5 5 5 5 6 5 5 6 6 6 6 6 6

GFSSGP_925_temp_105.txt.gz
Temp
18 20 22 24 25 26 29 29 29 27 27 28 27 28 29 29 29 26 23 22 22 22 22 21 21 21 21 21 21 21 21 21 21 21 21 21 20 20 19 19 19 19 19 20 19 19 19 19 19
19 20 22 26 25 28 30 28 27 27 26 26 26 27 27 27 26 26 23 21 21 21 22 22 21 21 21 21 21 21 21 20 21 21 21 21 20 20 20 19 19 19 19 20 19 19 19 19 18
19 20 24 25 27 29 28 27 27 25 25 26 27 27 26 25 25 23 22 20 19 20 21 22 21 21 21 20 21 21 21 20 20 21 20 20 20 20 19 19 19 19 19 19 20 19 19 19 17
20 22 24 24 27 26 26 26 25 25 25 25 25 26 23 22 23 21 21 20 19 19 20 21 21 21 20 20 20 20 20 20 20 20 20 20 20 20 20 19 19 19 19 19 19 19 19 19 18
21 24 24 24 27 25 25 24 24 25 25 25 25 26 24 22 21 20 20 20 19 19 19 19 20 20 20 20 20 20 20 20 20 20 20 20 20 19 20 19 19 19 19 19 19 19 18 19 18
22 23 24 25 26 24 24 23 23 24 25 25 24 24 25 21 20 19 19 20 20 18 18 19 20 20 20 20 20 20 20 20 19 20 20 20 20 19 19 19 19 19 19 19 19 19 18 18 18
22 22 25 25 25 23 23 22 23 24 24 24 23 24 24 22 21 19 19 19 20 19 18 18 19 20 20 19 19 19 19 20 20 20 20 20 20 19 19 19 19 19 19 19 19 19 18 17 17
22 22 23 24 23 23 21 21 21 22 24 23 23 24 25 24 21 20 20 19 19 19 19 18 18 19 20 20 19 19 20 20 20 20 20 20 20 19 19 19 19 19 18 19 19 19 18 17 17
20 21 24 23 22 21 20 21 20 20 21 22 23 23 23 22 21 20 20 19 19 19 19 18 17 17 18 19 19 19 19 19 20 20 20 20 19 19 19 19 19 19 19 19 19 18 18 17 17
20 21 22 21 21 21 20 19 20 20 21 22 22 23 23 22 21 20 19 19 19 19 19 18 18 17 17 18 19 19 20 19 19 19 19 19 20 21 22 21 20 19 19 19 18 18 18 18 18
19 21 19 18 18 18 19 19 20 19 20 22 22 22 22 21 20 19 19 19 19 18 18 18 18 18 17 17 18 18 19 19 18 19 19 20 20 20 21 21 19 19 18 18 18 17 17 18 19
18 18 18 18 17 17 18 18 19 20 20 21 21 20 20 20 20 19 19 18 18 18 18 17 18 18 17 17 17 17 19 19 18 19 18 18 19 19 19 21 22 20 20 19 19 19 19 18 20
19 17 16 17 16 16 17 17 18 18 20 20 20 19 19 19 19 19 19 19 19 18 18 18 17 18 18 17 16 17 18 20 19 18 18 19 18 18 18 19 20 20 20 19 20 19 19 19 20
17 16 17 16 16 16 15 17 17 20 19 19 19 19 19 19 19 19 18 19 19 19 19 18 18 17 18 17 16 16 17 19 20 20 19 19 19 18 18 18 18 20 19 20 20 20 20 20 20
15 17 17 16 16 16 15 17 17 19 19 19 19 19 19 19 19 18 18 18 18 18 18 18 18 17 18 17 16 15 16 17 18 19 20 19 20 19 19 19 19 19 19 19 20 20 20 20 20
16 16 18 16 16 15 15 20 20 20 19 19 19 19 19 19 18 18 17 17 18 17 17 18 18 17 18 17 16 16 16 16 17 18 19 20 19 19 19 19 19 19 19 19 19 19 18 18 18
17 17 18 17 16 16 15 18 21 20 19 18 19 18 18 18 18 17 17 17 16 16 17 17 17 17 17 17 18 17 16 16 16 18 19 19 19 19 19 19 19 19 19 18 17 18 17 17 17
17 16 16 17 17 16 16 17 19 20 19 18 18 17 17 17 18 17 16 15 15 15 16 16 16 16 17 17 17 17 17 17 17 18 18 18 18 19 18 18 18 19 19 18 17 17 17 17 17
15 15 15 17 16 14 17 17 19 20 19 18 17 17 16 15 16 15 14 14 13 13 14 15 15 16 16 16 17 17 17 17 17 17 17 17 17 18 18 18 18 18 18 18 18 18 17 17 16
14 15 16 16 15 15 17 17 19 19 18 16 16 16 15 13 14 13 12 11 10 10 10 11 14 16 16 17 16 16 17 17 17 17 17 17 16 17 17 17 17 17 17 18 17 18 18 17 17
15 16 16 13 15 17 16 19 17 17 17 16 17 16 15 13 11 11 10 9 9 8 9 9 10 11 12 13 14 14 15 15 15 15 15 15 16 15 15 15 16 16 16 16 17 17 17 17 17
15 15 15 14 14 15 17 16 18 18 17 16 17 15 14 12 11 10 9 8 7 7 8 8 9 9 9 10 12 12 14 15 16 16 15 15 14 14 14 14 14 15 15 15 16 16 16 16 16
15 15 15 15 13 12 16 13 19 17 17 17 15 14 12 11 9 9 8 7 7 6 7 8 8 8 8 8 8 9 11 11 12 12 12 12 11 11 11 11 12 13 14 15 15 15 15 15 15
15 15 14 14 13 13 17 16 18 18 16 14 13 11 10 9 9 8 7 6 6 6 6 7 8 7 7 7 8 9 8 8 8 8 8 8 9 9 9 10 10 10 12 14 14 14 15 14 14
13 12 14 14 14 16 17 15 17 17 11 11 10 9 9 8 8 7 6 6 5 5 5 6 6 6 6 6 6 6 6 6 7 7 6 6 7 7 7 8 9 8 10 10 13 14 14 14 14
12 12 14 15 16 16 16 14 17 13 11 10 8 8 8 8 7 7 6 5 5 4 4 4 5 5 5 5 5 6 5 5 5 6 6 6 5 6 6 7 7 8 9 9 9 9 10 12 13
12 13 14 12 15 13 16 17 15 12 11 9 8 8 7 7 7 6 6 5 5 4 4 4 4 4 5 5 6 5 6 6 6 6 6 7 7 7 6 7 6 7 7 8 8 7 8 9 9
15 14 13 12 14 16 18 17 16 12 10 9 8 7 6 7 7 6 6 5 6 5 5 5 6 6 5 5 6 6 5 5 6 6 6 6 7 7 7 7 7 7 7 7 6 6 6 7 7
14 14 14 15 15 15 18 19 15 12 10 9 8 7 7 7 7 7 7 8 8 7 7 7 7 6 6 6 6 6 6 6 6 6 6 6 6 6 6 6 6 6 6 7 7 7 6 6 6
17 16 16 15 16 17 16 18 15 13 11 9 9 8 7 8 9 10 10 9 9 8 8 7 7 6 5 6 6 6 6 6 6 6 6 6 6 6 6 5 5 6 6 6 6 6 7 7 7

GFSSGP_925_temp_108.txt.gz
Temp
19 20 21 23 21 22 24 27 26 25 27 25 26 25 25 24 24 22 22 21 21 22 21 21 22 21 21 21 21 21 21 21 21 20 21 20 20 20 19 19 19 19 19 19 19 19 19 19 19
19 21 22 22 21 23 25 26 26 25 25 25 26 26 27 23 24 23 22 21 20 20 21 21 21 21 21 21 20 21 21 21 20 20 20 20 20 20 20 19 19 19 19 20 19 19 19 19 18
19 21 20 21 22 24 24 26 23 24 26 26 26 26 24 22 22 22 21 21 20 20 20 21 21 21 21 21 21 21 21 20 20 20 20 20 20 20 20 19 19 19 19 19 19 19 19 19 18
21 21 21 21 23 24 25 23 24 24 25 25 25 22 22 22 22 20 20 21 20 19 19 20 20 21 21 21 20 20 21 20 20 20 20 20 20 20 20 20 19 19 19 19 19 19 19 19 19
20 20 21 22 24 24 23 23 24 25 24 24 23 24 21 21 20 19 20 20 20 19 18 19 19 20 20 20 20 20 20 20 20 20 20 20 20 20 20 19 19 19 19 19 19 19 19 19 19
19 20 21 21 24 23 22 22 23 24 23 23 24 23 20 21 19 19 20 19 20 19 18 18 19 20 20 20 20 20 20 20 20 20 20 20 20 20 19 19 19 19 19 19 19 19 19 18 19
19 20 21 24 22 22 22 22 22 22 23 21 22 22 20 21 21 20 20 19 20 19 19 18 19 18 19 20 20 19 20 20 20 20 20 20 20 20 20 19 19 19 19 19 19 19 19 18 18
18 19 23 23 22 21 20 21 20 21 21 23 23 22 21 22 22 21 20 19 19 19 19 19 18 19 19 19 19 20 20 20 20 20 20 20 20 20 19 19 19 19 19 19 19 19 19 19 18
20 18 20 22 23 19 20 21 20 20 19 21 22 21 22 22 22 21 20 19 19 19 19 19 18 18 18 18 19 19 19 19 19 19 20 20 20 19 19 20 19 19 19 19 19 19 19 18 18
18 18 18 19 19 19 20 19 20 19 20 20 21 22 22 21 21 20 19 19 19 19 19 18 18 18 18 18 18 18 18 19 19 19 19 19 20 20 20 20 20 20 19 19 18 18 18 18 18
19 18 19 18 17 18 19 19 20 19 18 20 19 19 19 19 19 19 19 19 18 18 18 18 18 18 18 18 18 18 19 19 19 20 19 19 20 20 20 21 21 20 19 19 18 18 18 18 17
18 18 18 18 16 17 17 17 18 18 18 19 19 19 19 17 17 18 18 18 18 18 18 18 18 18 18 18 18 18 18 19 19 19 19 19 19 19 20 20 20 20 19 19 19 18 18 18 17
18 18 17 17 16 16 17 16 16 16 17 19 19 18 17 17 18 19 19 19 19 18 18 19 18 18 18 18 17 17 18 18 19 19 18 19 19 20 19 19 19 19 19 19 19 18 18 18 18
17 17 17 17 17 16 15 16 17 18 18 19 19 18 18 18 18 18 18 18 18 18 18 18 18 18 18 17 17 17 17 18 18 19 19 19 19 19 19 19 20 20 19 19 19 19 19 19 19
16 16 16 16 16 16 15 15 15 17 19 18 18 18 18 18 18 18 18 18 17 17 17 18 18 18 18 17 17 17 16 17 18 19 19 20 19 19 19 19 19 19 19 19 19 19 19 19 19
16 16 16 15 16 15 15 16 18 18 18 18 18 18 17 17 17 18 17 16 16 16 16 16 16 17 17 17 17 17 16 16 17 18 19 19 19 19 19 19 19 19 19 19 19 19 19 19 19
16 14 17 15 16 16 15 16 19 19 19 18 18 16 16 16 16 15 14 14 13 13 14 13 15 15 16 17 17 17 17 17 16 17 18 18 19 19 19 19 19 19 19 19 19 19 18 18 18
15 15 16 16 15 15 14 14 16 18 19 18 17 17 16 14 14 14 13 11 12 11 11 11 12 13 15 16 16 17 17 16 16 16 16 18 19 19 19 19 19 18 18 18 18 18 18 18 17
15 16 15 16 16 14 14 15 16 17 18 17 17 15 14 13 13 13 11 11 10 9 9 10 10 11 12 15 16 16 17 17 17 16 17 17 18 18 18 18 18 18 18 18 18 18 18 17 17
15 16 15 16 16 15 14 15 16 17 17 15 16 15 14 13 13 12 11 9 8 8 8 9 9 10 10 11 13 16 17 17 17 17 17 17 17 16 16 16 16 16 17 17 17 17 17 17 17
14 15 15 13 15 15 15 15 16 16 16 16 16 14 13 11 11 11 10 8 7 7 7 8 8 9 9 10 12 14 15 16 16 16 15 15 15 15 15 15 15 15 15 15 15 16 16 16 16
15 15 15 14 12 11 14 10 16 15 15 16 16 12 10 9 10 10 9 8 7 6 7 7 8 8 8 9 10 11 11 13 13 13 12 12 12 13 13 12 12 12 13 13 13 14 15 15 15
14 15 15 14 14 12 14 10 14 16 16 15 12 11 10 9 10 9 8 7 6 6 6 7 7 7 7 7 8 9 9 9 10 10 11 11 10 10 9 10 10 10 10 10 10 12 13 14 14
15 15 14 14 13 12 13 12 13 15 15 13 12 10 9 9 9 8 7 6 6 5 5 6 6 6 6 5 6 7 7 8 8 8 8 7 8 8 8 8 8 9 10 10 8 9 12 13 14
14 13 13 12 12 11 15 13 13 14 11 11 10 9 9 8 8 7 7 6 5 5 5 5 5 5 5 6 6 5 5 6 7 6 6 7 7 7 7 7 7 7 8 8 8 8 9 8 10
13 12 12 13 15 14 15 11 13 12 11 10 9 9 9 8 8 7 6 6 5 5 5 5 5 5 5 6 6 6 6 6 6 6 5 5 7 7 7 7 7 7 7 7 8 6 7 7 7
12 12 14 11 14 11 12 14 12 11 11 10 9 8 8 7 7 7 6 6 5 5 5 6 6 5 5 6 6 6 6 6 6 6 6 6 8 7 7 7 7 7 7 6 6 5 6 5 5
15 14 12 11 13 14 14 15 13 11 11 10 9 8 8 7 7 7 7 7 7 6 7 7 7 6 6 6 6 6 6 6 6 6 6 7 6 6 6 6 6 6 6 6 7 7 7 5 4
14 14 14 14 14 14 13 14 14 12 11 10 10 9 8 8 7 7 7 8 9 8 7 7 7 6 6 6 6 6 6 6 6 6 6 6 6 6 6 6 6 5 5 6 6 6 6 6 6
16 15 15 12 14 13 14 12 14 12 10 10 10 9 8 8 8 7 8 9 10 9 8 8 8 7 7 7 7 7 7 7 7 6 6 6 6 5 5 5 5 5 5 5 5 4 4 5 5

GFSSGP_925_temp_111.txt.gz
Temp
19 20 19 20 18 17 20 24 23 25 23 23 24 22 21 20 21 20 20 21 21 20 20 20 21 21 21 21 21 21 21 20 20 20 20 20 20 20 20 19 19 19 19 19 19 19 19 19 19
20 21 20 17 17 18 20 21 20 21 23 24 24 24 22 21 21 20 20 20 20 20 20 21 21 21 21 21 21 21 21 21 20 20 20 20 20 20 20 20 20 19 19 19 19 19 19 18 19
19 20 17 17 17 20 20 21 21 22 21 22 24 21 20 19 20 20 20 19 19 19 19 21 21 21 21 21 21 21 20 20 20 20 20 20 20 20 20 20 19 19 19 20 19 19 19 19 19
18 18 16 18 20 21 20 21 22 23 23 23 22 19 19 20 19 19 20 19 19 19 19 20 20 20 20 21 20 20 20 20 20 20 20 20 20 20 19 19 19 20 19 19 19 19 19 18 19
19 15 17 19 21 20 19 21 21 22 21 22 22 20 18 19 19 19 19 19 19 19 19 19 19 19 20 20 20 20 20 20 20 20 20 20 20 20 19 19 19 19 19 19 19 19 19 19 19
16 16 17 19 20 20 19 19 21 21 21 21 21 20 18 20 20 20 20 20 19 19 19 19 19 19 19 20 20 20 20 20 20 20 20 20 20 20 19 19 19 19 19 19 19 19 19 19 19
17 16 18 21 19 19 19 19 18 18 19 19 21 20 18 19 20 20 20 20 19 19 19 19 19 19 19 19 19 20 20 19 20 20 20 20 20 20 19 19 19 19 19 19 19 19 19 19 19
15 16 20 21 19 17 19 19 19 17 19 18 21 19 18 20 20 20 20 19 19 19 19 19 19 19 19 19 19 19 19 19 19 19 20 20 19 19 19 19 19 19 19 19 19 19 19 19 19
17 15 16 16 18 17 19 18 19 19 18 19 20 20 20 20 20 20 19 19 19 18 18 18 18 19 19 19 19 19 19 19 19 19 19 19 19 19 19 19 20 20 19 19 19 19 18 19 19
15 13 17 16 16 17 18 18 18 18 17 19 19 18 20 20 19 18 18 18 18 18 18 18 18 18 18 18 18 18 19 19 19 19 20 20 20 20 20 20 20 20 19 19 19 19 18 18 18
18 15 17 15 16 16 17 17 16 18 17 18 18 17 17 18 18 18 18 18 18 18 18 18 18 18 18 18 18 18 18 19 19 19 19 19 19 19 19 19 19 20 19 19 19 19 18 18 18
16 16 16 16 15 15 15 15 15 16 16 16 17 17 17 16 16 17 18 18 18 18 18 18 18 18 18 18 18 18 18 18 19 19 19 18 18 19 19 19 19 19 19 19 18 18 18 18 18
16 16 16 15 15 15 16 14 14 15 15 17 18 18 16 15 16 18 18 18 17 17 17 17 17 18 17 17 17 17 17 18 18 18 19 19 19 19 19 19 19 19 19 19 19 18 18 18 18
15 15 15 15 16 15 15 14 14 16 16 18 17 17 17 16 16 17 17 16 15 15 15 15 16 17 17 17 17 17 17 17 17 17 18 18 19 19 19 19 19 19 19 19 19 19 18 18 18
15 15 15 15 15 15 14 14 13 14 16 17 17 16 15 15 16 14 13 13 13 13 13 13 14 14 15 16 17 17 17 17 16 17 17 17 19 19 19 19 19 19 19 19 18 19 18 18 18
15 14 13 14 15 14 15 15 16 15 17 16 17 15 14 13 13 12 11 11 11 12 12 12 12 13 14 15 15 17 17 17 16 17 17 17 18 18 19 19 18 19 19 19 19 19 19 18 18
13 11 15 14 15 15 14 14 15 16 15 15 16 14 15 13 12 11 11 11 10 10 10 10 11 11 11 13 15 15 16 16 16 17 17 17 18 18 19 19 18 19 18 18 18 18 18 18 18
12 12 15 15 14 14 13 12 13 15 15 14 14 13 12 12 11 11 11 10 10 9 8 8 9 9 10 11 13 14 15 16 16 16 16 17 17 18 18 18 18 18 18 18 18 18 18 18 18
14 14 14 15 14 14 12 12 14 14 15 14 12 11 11 12 11 11 10 9 8 9 8 8 8 9 9 9 9 12 13 15 16 17 16 17 17 17 15 16 16 17 17 17 17 17 17 17 17
14 15 14 14 15 14 13 13 14 14 15 13 13 11 10 10 10 10 9 8 7 8 8 7 8 8 8 8 9 10 12 14 15 16 16 15 14 14 13 14 15 15 15 16 16 15 15 16 16
13 14 13 12 13 14 13 12 15 15 14 14 14 10 9 9 8 9 9 8 7 6 7 7 7 7 7 8 9 10 13 14 14 14 13 11 11 11 12 13 13 14 13 13 12 12 13 14 14
13 14 14 14 10 9 12 9 11 14 14 14 11 8 8 8 9 9 8 7 6 6 6 6 6 6 7 7 7 9 9 9 9 10 10 9 10 10 11 11 12 11 11 11 10 10 11 11 13
13 14 13 13 12 9 11 8 10 13 13 12 9 8 8 8 8 8 7 7 6 5 5 5 6 6 6 7 7 7 8 8 7 7 9 9 8 9 8 10 10 10 9 9 9 9 10 9 9
14 13 13 14 12 8 11 10 11 12 14 12 9 8 8 8 8 8 7 6 6 6 5 6 6 6 6 6 6 6 5 6 6 6 6 7 8 8 8 8 8 8 8 8 8 7 8 10 9
14 10 8 9 8 9 13 11 11 13 11 11 9 8 7 8 7 7 6 6 5 5 5 5 5 6 6 6 6 6 6 6 6 6 6 6 7 7 7 7 7 7 7 7 7 7 7 6 7
12 12 8 8 9 9 13 11 12 11 9 9 9 8 9 8 7 7 6 6 5 5 6 6 6 6 6 6 6 6 6 6 6 6 7 7 7 6 6 7 7 6 6 6 6 6 6 6 6
11 12 13 9 10 8 8 12 12 10 10 9 9 9 8 8 7 7 7 6 6 6 7 6 7 6 6 6 6 6 6 6 6 6 6 6 6 6 6 6 6 6 6 6 6 6 5 5 5
14 13 12 10 9 13 10 12 12 11 10 9 8 8 8 7 7 7 7 7 7 7 7 7 7 7 7 6 7 6 6 6 6 6 6 6 6 6 6 6 5 5 5 5 5 5 5 5 5
13 12 13 12 13 12 11 11 13 11 10 9 9 8 8 8 7 7 7 7 8 8 8 8 7 7 7 7 7 7 7 6 6 6 6 5 5 5 5 5 5 5 4 4 4 4 4 4 4
13 12 12 10 12 13 11 11 14 11 9 9 8 8 8 8 7 7 7 7 8 8 8 8 8 7 7 7 7 7 6 6 6 5 5 5 5 4 4 4 4 4 4 3 3 3 3 3 3